{"data":{"norad_id":62334,"intl_designator":"2024-241B","name":"PIESAT-2 10","alt_names":[],"object_type":"PAYLOAD","status":"ACTIVE","operator":null,"country":"PRC","launch_date":"2024-12-16","launch_site_code":"TAISC","launch_vehicle":null,"mission":null,"orbit_class":"UNKNOWN","rcs_meters":null,"size_class":null,"mass_kg":null,"dimensions":null,"purposes":[],"wikipedia_slug":null,"has_3d_model":false,"image_url":null,"decayed_at":null,"tle_current":{"epoch":"2026-05-24T13:51:23.332032Z","epoch_age_seconds":121736,"freshness":"FRESH","line1":"1 62334U 24241B   26144.57735338  .00003739  00000+0  21029-3 0  9997","line2":"2 62334  97.5364  92.8756 0002497  82.9470 277.2045 15.13882428 79233","mean_motion":15.13882428,"eccentricity":0.0002497,"inclination_deg":97.5364,"raan_deg":92.8756,"arg_perigee_deg":82.947,"mean_anomaly_deg":277.2045,"bstar":0.00021029,"rev_number":7923,"period_min":95.119672001372,"perigee_km":522.64994317863,"apogee_km":526.09705692236,"semimajor_km":6902.5105000505,"source":"CELESTRAK","updated_at":"2026-05-25T13:38:02.939429Z"}}}